Find Geely Xingzuo 03 zu 10 xing

NORAD ID: 61020 Int'l Des: 2024-159 Owner: GEESP Country: CN Constellation: geesatcom operational
LEOCIRCULAR

Live Position

Loading 3D Globe...

About Geely Xingzuo 03 zu 10 xing

Description loading...

Upcoming Passes

Passes for default location (London). Set your location on the main map for personalized predictions.

Altitude History

Loading altitude history...

Two-Line Element Set

1 61020U 24159K 26105.34153152 .00001011 00000-0 14704-3 0 9990
2 61020 50.0013 14.6718 0003792 232.6081 127.4513 14.84014197 87175
Epoch: Apr 15, 2026 • Age: 16 hours

Current Status

Altitude 620.2 km
Velocity 7.55 km/s
Sub-Earth Point 27.65°N, 174.59°W
Launch Date Sep 5, 2024
Age 1.6 years
Type other

Technical Details

Classification Payload
Mass 130.00 kg
Dry Mass 130.00 kg
Total Mass 130.00 kg
Length 1.00 m
Diameter 0.50 m
Span 2.00 m
Shape Box + 2 pan
Manufacturer GWCG
Bus Type GPS100
Phase Status In Orbit
Owner/State GEESP/CN

Most Searched